Location: Unspecified
(52.1971°N, 0.0000°E)
Time: 10:36:18
(UTC+00:00)

YUBILEINY - Pass Details

Date: 21 December 2019
Orbit: 1478 x 1509 km, 82.5° (Epoch: 21 January)

Event Time Altitude Azimuth Distance (km) Brightness Sun altitude
Exits shadow 21:38:12 15° 3° (N) 3,262 ? -50.8°
Drops below altitude 10° 21:39:23 10° 6° (N) 3,630 ? -51.0°
Sets 21:42:25 0° 12° (NNE) 4,613 ? -51.3°
